Location: *
(41.7492°S, 135.4150°W)
Time: 17:38:48
(UTC+00:00)

H-2A R/B - Pass Details

Date: 20 September 2021
Orbit: 501 x 538 km, 97.3° (Epoch: 12 March)

Event Time Altitude Azimuth Distance (km) Brightness Sun altitude
Rises 13:58:46 0° 349° (NNW) 2,666 6.1 -11.0°
Reaches altitude 10° 14:01:05 10° 337° (NNW) 1,781 5.1 -10.6°
Maximum altitude 14:04:27 28° 276° (W) 1,013 3.6 -10.0°
Drops below altitude 10° 14:07:50 10° 215° (SW) 1,789 5.2 -9.3°
Sets 14:10:10 0° 203° (SSW) 2,681 6.2 -8.9°
